Terminal Aerodrome Forecast
Issued by NWS Shreveport, LA

Home | Current Version | Previous Version | Text Only | Print | Product List | Glossary On
Versions: 1 2 3 4 5 6 7 8 9 10 11 12 13 14 15 16 17
000
FTUS44 KSHV 040539
TAFTXK
TAF
KTXK 040539Z 0406/0506 19005KT 6SM BR VCTS SCT050CB SCT100
     FM041200 21005KT P6SM VCSH SCT010 BKN100 OVC150
      TEMPO 0413/0416 BKN010
     FM041600 24007KT P6SM VCTS SCT030CB BKN100 OVC150
     FM050000 19005KT P6SM VCTS BKN050CB=

USA.gov is the U.S. government's official web portal to all federal, state and local government web resources and services.